When you browse on this site, cookies collect data to enhance your experience and personalize the content and advertising you see.
Visit our Privacy Policy to learn more. By continuing to use the site, you agree to this use of cookies and data.

Hourly Weather Malachow

Today, 7 July, Tuesday

Time Temperature Precipitation Wind Pressure Humidity
00:00 +16°C° 0.1 mm 3 mps 737 mmHg 76%
01:00 +14°C° 0 mm 4 mps 737 mmHg 75%
02:00 +14°C° 0.3 mm 4 mps 738 mmHg 79%
03:00 +13°C° 0.3 mm 4 mps 738 mmHg 83%
04:00 +13°C° 0.3 mm 4 mps 738 mmHg 86%
05:00 +13°C° 0 mm 4 mps 738 mmHg 85%
06:00 +13°C° 0 mm 5 mps 738 mmHg 84%
07:00 +13°C° 0 mm 6 mps 739 mmHg 83%
08:00 +14°C° 0 mm 6 mps 739 mmHg 77%
09:00 +15°C° 0 mm 6 mps 739 mmHg 70%
10:00 +17°C° 0 mm 6 mps 739 mmHg 64%
11:00 +17°C° 0.1 mm 6 mps 739 mmHg 62%
12:00 +17°C° 0.1 mm 6 mps 739 mmHg 59%
13:00 +18°C° 0.1 mm 7 mps 739 mmHg 56%
14:00 +19°C° 0 mm 6 mps 739 mmHg 57%
15:00 +19°C° 0 mm 6 mps 739 mmHg 57%
16:00 +17°C° 0 mm 5 mps 739 mmHg 58%
17:00 +17°C° 0 mm 4 mps 739 mmHg 63%
18:00 +17°C° 0 mm 3 mps 739 mmHg 68%
19:00 +16°C° 0 mm 2 mps 739 mmHg 73%
20:00 +14°C° 0 mm 2 mps 739 mmHg 75%
21:00 +13°C° 0 mm 1 mps 739 mmHg 77%
22:00 +12°C° 0 mm 1 mps 739 mmHg 79%
23:00 +12°C° 0 mm 1 mps 739 mmHg 80%

Tomorrow, 8 July, Wednesday

Time Temperature Precipitation Wind Pressure Humidity
00:00 +12°C° 0 mm 2 mps 739 mmHg 80%
01:00 +12°C° 0 mm 2 mps 739 mmHg 81%
02:00 +10°C° 0 mm 2 mps 739 mmHg 82%
03:00 +10°C° 0 mm 2 mps 739 mmHg 83%
04:00 +10°C° 0 mm 2 mps 739 mmHg 84%
05:00 +12°C° 0 mm 3 mps 739 mmHg 80%
06:00 +13°C° 0 mm 4 mps 739 mmHg 76%
07:00 +15°C° 0 mm 4 mps 739 mmHg 72%
08:00 +17°C° 0 mm 4 mps 739 mmHg 70%
09:00 +17°C° 0 mm 4 mps 739 mmHg 67%
10:00 +18°C° 0 mm 4 mps 739 mmHg 64%
11:00 +18°C° 0.1 mm 4 mps 739 mmHg 63%
12:00 +19°C° 0.1 mm 4 mps 739 mmHg 61%
13:00 +20°C° 0.1 mm 4 mps 739 mmHg 59%
14:00 +18°C° 0.1 mm 4 mps 739 mmHg 67%
15:00 +17°C° 0.1 mm 3 mps 739 mmHg 75%
16:00 +14°C° 0.1 mm 3 mps 738 mmHg 83%
17:00 +14°C° 0.4 mm 3 mps 738 mmHg 87%
18:00 +13°C° 0.4 mm 3 mps 739 mmHg 90%
19:00 +13°C° 0.4 mm 3 mps 739 mmHg 93%
20:00 +13°C° 0.6 mm 3 mps 739 mmHg 94%
21:00 +12°C° 0.6 mm 3 mps 739 mmHg 95%
22:00 +12°C° 0.6 mm 3 mps 739 mmHg 95%
23:00 +12°C° 0.2 mm 3 mps 740 mmHg 96%

Day after tomorrow, 9 July, Thursday

Time Temperature Precipitation Wind Pressure Humidity
00:00 +12°C° 0.2 mm 2 mps 740 mmHg 96%
01:00 +12°C° 0.2 mm 2 mps 740 mmHg 96%
02:00 +12°C° 0 mm 2 mps 740 mmHg 96%
03:00 +10°C° 0 mm 2 mps 740 mmHg 96%
04:00 +11°C° 0 mm 1 mps 740 mmHg 96%
05:00 +12°C° 0 mm 1 mps 740 mmHg 92%
06:00 +14°C° 0 mm 1 mps 741 mmHg 89%
07:00 +15°C° 0 mm 1 mps 741 mmHg 85%
08:00 +16°C° 0 mm 2 mps 741 mmHg 80%
09:00 +17°C° 0 mm 2 mps 741 mmHg 75%
10:00 +18°C° 0 mm 2 mps 741 mmHg 70%
11:00 +18°C° 0 mm 2 mps 741 mmHg 70%
12:00 +19°C° 0 mm 2 mps 741 mmHg 71%
13:00 +19°C° 0 mm 2 mps 741 mmHg 71%
14:00 +19°C° 0 mm 2 mps 741 mmHg 69%
15:00 +20°C° 0 mm 2 mps 740 mmHg 68%
16:00 +21°C° 0 mm 3 mps 740 mmHg 66%
17:00 +20°C° 0 mm 3 mps 740 mmHg 71%
18:00 +19°C° 0 mm 2 mps 740 mmHg 77%
19:00 +18°C° 0 mm 2 mps 740 mmHg 82%
20:00 +18°C° 0 mm 2 mps 740 mmHg 85%
21:00 +17°C° 0 mm 2 mps 740 mmHg 88%
22:00 +16°C° 0 mm 2 mps 740 mmHg 91%
23:00 +16°C° 0 mm 2 mps 740 mmHg 91%

10 July, Friday

Time Temperature Precipitation Wind Pressure Humidity
00:00 +16°C° 0 mm 2 mps 739 mmHg 91%
01:00 +16°C° 0 mm 3 mps 739 mmHg 90%
02:00 +16°C° 0 mm 3 mps 739 mmHg 89%
03:00 +16°C° 0 mm 3 mps 739 mmHg 88%
04:00 +17°C° 0 mm 3 mps 738 mmHg 87%
05:00 +18°C° 0.1 mm 3 mps 738 mmHg 83%
06:00 +19°C° 0.1 mm 3 mps 738 mmHg 80%
07:00 +20°C° 0.1 mm 3 mps 738 mmHg 76%
08:00 +22°C° 0 mm 4 mps 738 mmHg 71%
09:00 +25°C° 0 mm 4 mps 738 mmHg 66%
10:00 +26°C° 0 mm 5 mps 738 mmHg 61%
11:00 +27°C° 0 mm 5 mps 737 mmHg 57%
12:00 +29°C° 0 mm 6 mps 737 mmHg 52%
13:00 +30°C° 0 mm 6 mps 736 mmHg 48%
14:00 +30°C° 0 mm 6 mps 736 mmHg 50%
15:00 +30°C° 0 mm 6 mps 736 mmHg 52%
16:00 +30°C° 0 mm 5 mps 735 mmHg 54%
17:00 +28°C° 0 mm 5 mps 735 mmHg 57%
18:00 +26°C° 0 mm 5 mps 735 mmHg 61%
19:00 +25°C° 0 mm 5 mps 735 mmHg 64%
20:00 +22°C° 0.3 mm 4 mps 736 mmHg 73%
21:00 +19°C° 0.3 mm 4 mps 736 mmHg 81%
22:00 +17°C° 0.3 mm 3 mps 737 mmHg 90%
23:00 +17°C° 0.8 mm 4 mps 738 mmHg 91%

11 July, Saturday

Time Temperature Precipitation Wind Pressure Humidity
00:00 +17°C° 0.8 mm 4 mps 738 mmHg 93%
01:00 +15°C° 0.8 mm 5 mps 739 mmHg 94%
02:00 +14°C° 1.3 mm 4 mps 739 mmHg 93%
03:00 +13°C° 1.3 mm 3 mps 739 mmHg 92%
04:00 +12°C° 1.3 mm 3 mps 739 mmHg 91%
05:00 +12°C° 0.4 mm 3 mps 740 mmHg 90%
06:00 +13°C° 0.4 mm 2 mps 740 mmHg 89%
07:00 +13°C° 0.4 mm 2 mps 741 mmHg 88%
08:00 +14°C° 0.1 mm 2 mps 741 mmHg 85%
09:00 +13°C° 0.1 mm 3 mps 741 mmHg 81%
10:00 +14°C° 0.1 mm 3 mps 742 mmHg 78%
11:00 +16°C° 0 mm 3 mps 742 mmHg 71%
12:00 +17°C° 0 mm 3 mps 742 mmHg 65%
13:00 +18°C° 0 mm 2 mps 742 mmHg 58%
14:00 +18°C° 0 mm 3 mps 742 mmHg 59%
15:00 +19°C° 0 mm 3 mps 742 mmHg 60%
16:00 +19°C° 0 mm 3 mps 742 mmHg 60%
17:00 +18°C° 0.1 mm 2 mps 742 mmHg 65%
18:00 +17°C° 0.1 mm 2 mps 742 mmHg 70%
19:00 +16°C° 0.1 mm 1 mps 742 mmHg 75%
20:00 +15°C° 0 mm 2 mps 742 mmHg 77%
21:00 +14°C° 0 mm 2 mps 742 mmHg 78%
22:00 +13°C° 0 mm 2 mps 743 mmHg 80%
23:00 +13°C° 0 mm 2 mps 743 mmHg 80%

12 July, Sunday

Time Temperature Precipitation Wind Pressure Humidity
00:00 +12°C° 0 mm 2 mps 743 mmHg 81%
01:00 +12°C° 0 mm 2 mps 743 mmHg 81%
02:00 +10°C° 0 mm 2 mps 743 mmHg 83%
03:00 +10°C° 0 mm 2 mps 743 mmHg 85%
04:00 +9°C° 0 mm 2 mps 743 mmHg 86%
05:00 +11°C° 0 mm 3 mps 743 mmHg 83%
06:00 +12°C° 0 mm 3 mps 744 mmHg 79%
07:00 +14°C° 0 mm 3 mps 744 mmHg 76%
08:00 +16°C° 0 mm 3 mps 744 mmHg 70%
09:00 +17°C° 0 mm 3 mps 744 mmHg 65%
10:00 +18°C° 0 mm 3 mps 744 mmHg 59%
11:00 +18°C° 0.3 mm 4 mps 744 mmHg 64%
12:00 +17°C° 0.3 mm 4 mps 744 mmHg 68%
13:00 +16°C° 0.3 mm 5 mps 744 mmHg 73%
14:00 +16°C° 0.1 mm 5 mps 744 mmHg 69%
15:00 +17°C° 0.1 mm 5 mps 744 mmHg 64%
16:00 +17°C° 0.1 mm 5 mps 744 mmHg 59%
17:00 +17°C° 0 mm 4 mps 744 mmHg 64%
18:00 +15°C° 0 mm 4 mps 744 mmHg 69%
19:00 +14°C° 0 mm 3 mps 744 mmHg 74%
20:00 +12°C° 0 mm 3 mps 744 mmHg 76%
21:00 +12°C° 0 mm 2 mps 744 mmHg 77%
22:00 +10°C° 0 mm 2 mps 745 mmHg 79%
23:00 +10°C° 0 mm 2 mps 745 mmHg 80%
Show more